Location: ?????????
(54.7630°N, 39.4991°E)
Time: 19:59:16
(UTC+00:00)

Cosmos 2058 - Pass Details

Date: 14 April 2026
Orbit: 523 x 538 km, 82.5° (Epoch: 19 May)

Event Time Altitude Azimuth Distance (km) Brightness Sun altitude
Rises 19:31:13 0° 350° (N) 2,698 7.6 -21.5°
Reaches altitude 10° 19:33:25 10° 354° (N) 1,799 6.4 -21.7°
Enters shadow 19:37:18 62° 72° (ENE) 607 2.9 -21.9°
